Location: Unspecified
(0.0000°N, 0.0000°E)
Time: 23:38:46
(UTC+00:00)

N. Korean satellite - Pass Details

Date: 19 January 2022
Orbit: 447 x 490 km, 97.3° (Epoch: 27 January)

Event Time Altitude Azimuth Distance (km) Brightness Sun altitude
Rises 04:41:46 0° 15° (NNE) 2,551 10.2 -20.8°
Reaches altitude 10° 04:43:51 10° 18° (NNE) 1,672 9.2 -20.3°
Maximum altitude 04:47:25 66° 100° (E) 535 6.9 -19.5°
Drops below altitude 10° 04:51:00 10° 184° (S) 1,671 9.5 -18.6°
Sets 04:53:04 0° 186° (S) 2,548 10.4 -18.1°
